Theta_e
351 348 346 341 336 337 335 335 334 333 332 333 335 338 341 340 340 338 338 336 335 334 331 327 328 334 333 327 329 335 338 339 338 337 337 337 340 340 341 341 341 342 342 342 341 342 342 341 341 340 341 341 340 340 339 339 339 339 339 338 338 338 339 338 338 338 337 337 338 338 338 338 338 337 336 336 335 335 335 336 335 335 335 334 333
350 348 347 342 337 336 335 334 333 333 331 331 332 334 337 339 341 339 337 334 332 329 326 327 332 334 333 333 333 335 337 338 338 337 337 337 340 340 341 341 342 342 342 342 341 342 342 341 341 340 340 340 340 339 339 339 338 339 338 337 337 338 338 337 338 338 337 337 337 337 337 336 337 337 336 335 335 335 335 334 334 335 334 333 332
349 348 346 343 338 335 334 334 332 332 329 329 328 329 331 333 335 335 333 329 327 325 326 332 335 335 336 338 337 336 336 337 338 337 336 337 339 340 341 341 341 342 342 342 341 342 342 341 341 340 340 340 340 339 338 339 338 338 337 337 337 337 337 337 338 338 337 337 336 335 335 335 336 336 336 335 335 334 333 332 332 333 331 330 329
349 348 346 344 338 334 334 333 332 330 328 327 326 326 326 326 327 326 326 323 324 326 330 334 335 335 336 337 336 336 335 337 338 337 337 337 338 339 341 341 341 341 342 342 341 341 342 341 341 340 340 340 339 339 339 338 338 338 338 337 337 337 337 338 337 336 336 336 336 336 335 335 335 334 334 333 332 331 330 329 330 330 328 325 325
349 348 346 345 340 335 332 331 331 329 328 327 326 326 325 325 326 326 327 326 328 331 334 336 333 333 334 335 336 337 337 337 337 336 336 336 337 338 339 340 341 341 341 341 341 341 341 341 340 339 338 339 339 339 339 338 338 337 337 336 336 335 335 336 335 334 333 333 334 335 334 334 334 332 331 331 329 328 327 326 329 330 328 325 325
349 347 346 345 341 337 332 331 330 329 328 328 330 330 330 330 330 332 333 333 334 335 336 335 333 333 335 336 337 337 337 337 336 336 336 336 336 337 338 339 340 340 341 340 341 341 340 340 339 336 335 337 338 338 338 338 337 336 335 334 333 333 333 332 332 331 329 329 331 332 332 332 331 331 331 330 329 329 328 327 329 330 330 329 330
348 346 346 344 343 338 331 330 329 329 328 330 334 334 333 333 334 336 337 337 337 338 335 333 333 335 337 337 336 336 337 337 337 336 335 336 336 337 338 339 339 339 340 340 340 340 340 339 336 333 331 332 334 336 336 336 336 334 333 331 331 330 330 329 329 327 326 329 331 331 331 330 330 330 330 329 329 330 330 330 331 331 331 331 333
348 347 347 344 344 338 331 331 329 328 328 331 334 334 332 332 335 337 338 338 337 338 335 332 335 337 338 337 335 336 337 337 337 336 336 336 336 337 337 338 338 338 339 339 339 339 339 337 332 330 331 331 331 332 333 334 332 331 330 329 329 328 327 327 326 324 325 328 329 329 329 329 328 329 329 330 331 331 331 332 332 331 331 332 333
347 347 346 345 344 338 334 332 330 328 327 329 330 328 329 331 335 337 337 337 337 338 337 336 337 338 337 336 336 336 336 336 336 335 336 336 336 337 338 337 337 338 338 338 338 338 336 333 330 330 330 331 331 331 331 332 331 329 330 330 329 328 327 324 323 325 327 328 328 328 328 328 328 328 329 331 332 333 333 332 332 332 332 331 331
347 346 346 345 343 339 336 333 330 329 327 327 326 326 331 333 334 337 337 336 336 336 338 338 337 338 338 337 337 338 337 337 336 336 336 336 337 337 338 337 338 338 338 338 338 336 332 330 330 330 330 330 331 330 330 330 331 331 331 331 329 328 326 323 325 328 329 329 329 329 329 329 330 330 331 331 332 331 331 332 332 331 330 329 329
347 346 345 345 343 338 336 334 331 330 328 328 327 329 336 335 332 337 338 336 337 337 338 338 336 338 338 337 338 338 338 338 338 338 337 337 337 337 338 338 338 338 338 338 336 333 329 329 330 330 330 330 330 330 330 330 331 331 331 331 329 327 325 325 328 329 329 329 329 329 329 329 330 333 332 332 332 330 329 330 330 329 329 330 330
346 346 345 345 343 339 337 336 332 331 332 330 329 332 336 333 332 336 338 337 337 337 339 338 336 337 338 338 338 338 338 338 337 336 335 334 335 337 337 337 337 337 337 336 333 330 328 329 330 330 330 330 330 329 330 331 331 331 331 330 329 326 323 325 329 329 329 329 330 330 330 331 332 333 332 332 332 331 330 330 329 329 330 331 330
346 346 345 345 343 340 338 337 334 333 333 331 329 331 331 330 333 335 335 337 337 337 339 338 337 338 338 338 338 338 338 336 335 335 333 332 332 334 335 336 336 336 336 334 331 328 328 329 330 330 330 329 329 330 330 331 331 331 331 329 327 324 323 327 329 329 329 329 329 330 331 332 332 332 332 331 331 331 330 330 329 330 330 329 328
347 346 345 345 344 341 340 338 336 334 331 330 329 329 327 329 335 336 334 336 337 337 338 338 336 337 338 338 338 338 336 334 334 335 334 333 331 330 333 335 336 336 334 331 329 328 328 330 331 330 330 330 329 329 330 330 330 330 329 328 326 324 325 328 329 329 329 329 329 329 330 330 330 330 330 330 329 329 329 329 328 328 328 327 326
347 346 345 345 343 342 341 338 337 334 330 329 328 328 326 329 334 336 335 335 336 337 337 338 336 337 338 338 337 336 334 333 336 337 335 333 331 329 330 333 335 335 332 330 328 328 328 330 331 331 330 330 329 329 329 328 328 327 327 326 325 324 326 328 328 329 329 329 329 328 329 329 328 329 329 329 328 328 328 327 327 326 326 325 326
346 346 345 345 343 341 340 339 338 335 331 330 329 328 327 330 334 335 335 334 335 336 336 338 337 336 337 337 335 334 335 335 337 338 335 333 333 331 330 331 333 333 330 328 328 327 329 331 331 330 330 329 329 329 328 327 326 325 325 325 324 324 326 328 328 328 329 329 329 329 329 328 328 328 329 328 328 328 327 327 327 326 325 326 327
346 345 345 345 343 342 341 341 339 337 336 334 333 332 331 332 334 335 336 334 334 335 335 337 337 335 335 334 334 335 336 336 337 337 334 333 333 333 331 329 329 329 327 327 327 328 330 331 331 330 330 329 329 328 327 326 324 323 324 323 324 324 324 327 329 328 329 329 329 329 329 329 328 329 329 328 329 328 326 326 326 326 325 326 326
346 345 345 344 344 343 341 342 340 340 340 338 336 335 335 334 333 334 335 334 333 333 335 336 337 335 332 331 334 335 336 337 337 336 334 334 333 333 332 327 324 326 326 327 328 329 331 331 331 330 329 329 328 328 327 325 322 321 322 323 323 323 322 326 329 328 328 329 329 329 329 328 328 328 328 328 327 327 326 325 325 324 324 325 326
346 345 345 344 344 343 342 342 341 341 341 341 339 337 336 335 333 334 335 335 334 333 334 336 336 333 331 333 336 335 336 336 335 335 334 334 333 333 332 326 322 324 325 327 329 330 331 331 331 330 329 329 328 328 326 323 321 320 321 322 323 322 323 327 329 328 328 329 329 328 328 328 327 327 327 326 326 326 326 325 325 325 325 325 325
346 346 345 344 344 344 343 342 342 342 342 342 341 338 337 336 334 335 336 336 335 333 333 334 333 332 334 336 337 337 337 336 334 334 333 333 333 333 331 324 321 324 326 328 330 331 331 331 331 330 329 329 329 328 325 322 320 320 321 322 322 323 326 328 328 328 329 328 328 328 327 327 327 327 327 327 326 326 326 326 326 325 325 324 324
345 345 344 344 343 343 343 343 343 342 342 341 341 340 338 336 336 336 336 336 335 333 332 332 332 334 336 337 337 337 337 337 335 333 333 332 332 333 330 324 322 325 327 329 330 331 331 331 331 330 329 329 329 327 323 322 320 320 320 321 322 325 327 328 328 328 328 328 328 328 327 327 327 327 327 326 326 326 326 326 325 325 325 324 323
344 345 345 344 343 343 343 343 343 342 341 341 341 340 338 337 337 336 336 336 335 334 333 333 333 335 337 337 337 337 338 337 336 334 334 333 332 333 330 323 323 326 327 329 330 331 331 331 331 330 330 330 329 326 323 321 320 320 319 321 324 326 327 328 328 328 328 328 328 327 326 326 326 326 326 326 325 326 325 325 325 324 324 323 323
343 344 345 344 343 342 342 343 343 342 341 341 342 340 339 338 337 337 336 336 337 336 335 335 334 336 337 337 337 337 338 338 336 335 334 334 333 333 331 324 324 326 327 329 330 331 332 331 330 330 330 330 328 326 324 322 320 320 319 321 325 325 326 328 329 328 328 328 327 326 326 326 326 326 326 325 325 325 325 325 324 324 323 323 323
343 343 343 343 342 341 341 342 342 342 342 342 342 341 340 338 337 337 336 337 338 337 336 336 336 337 338 338 337 337 337 338 337 335 334 334 333 333 332 327 325 326 326 329 330 331 332 332 331 330 330 330 328 326 325 323 320 320 320 321 323 324 326 328 329 328 328 327 327 326 325 326 326 326 326 325 325 325 325 324 324 323 323 322 322
342 343 343 342 342 341 340 341 342 342 342 342 342 341 340 339 337 336 336 338 339 338 337 337 338 337 338 337 337 336 336 337 337 335 335 335 334 334 334 331 329 329 327 328 329 331 332 332 333 332 331 330 329 326 326 323 321 321 321 321 322 323 326 327 327 327 328 328 327 325 325 325 326 326 326 326 325 324 324 323 322 322 322 322 321
342 342 342 342 343 342 341 341 342 342 342 342 343 341 340 340 338 336 337 339 339 338 338 338 338 338 338 337 336 336 336 336 337 337 336 334 334 334 335 333 332 330 327 327 329 330 332 333 333 332 332 331 329 327 326 325 323 324 323 323 322 323 326 325 326 327 328 328 326 325 326 326 326 326 325 325 325 324 323 322 322 322 321 320 320
341 342 341 342 343 343 342 342 343 342 342 342 342 341 340 340 339 338 338 339 338 338 338 338 338 338 338 338 337 337 336 336 336 336 336 334 333 334 335 334 333 330 326 326 328 330 332 333 333 332 332 331 329 327 326 326 325 326 325 325 324 325 325 325 327 328 327 327 324 323 325 325 325 325 325 325 324 322 321 319 319 320 320 320 320
341 341 342 342 342 343 342 342 342 342 342 342 342 341 340 339 340 339 338 337 337 338 339 338 338 337 337 338 338 337 336 336 335 335 336 335 334 334 335 335 334 330 325 326 328 329 331 332 332 332 331 330 328 327 326 326 326 327 327 326 326 326 326 327 327 328 327 327 326 324 325 326 325 323 323 325 323 321 320 319 318 320 321 320 319
340 341 341 341 342 342 342 341 341 342 342 341 341 341 340 339 339 339 338 338 338 338 338 339 339 338 338 338 337 337 337 336 336 335 335 334 334 334 334 334 334 331 327 326 327 329 331 332 332 332 331 330 328 327 327 327 327 328 328 327 327 326 326 328 328 327 327 327 327 324 323 324 323 321 321 322 321 320 320 320 321 320 318 316 315
339 340 341 340 341 341 341 341 341 341 341 341 341 341 340 339 339 339 338 338 338 337 338 339 339 338 338 338 337 337 336 336 335 335 335 334 333 334 335 333 332 332 329 326 327 329 331 332 333 332 331 330 329 328 327 328 328 328 328 328 329 328 327 328 327 327 327 326 327 325 321 320 322 323 324 324 322 322 322 322 322 320 318 318 319
339 339 340 339 340 340 340 340 340 340 340 340 340 340 340 339 339 338 338 338 337 337 338 339 339 339 338 338 337 336 336 336 334 334 334 333 331 333 335 332 331 332 331 329 327 328 330 332 332 332 331 331 330 329 328 328 328 328 329 330 329 329 327 328 327 327 327 326 328 327 323 322 323 325 326 326 326 326 325 324 322 322 324 325 326
339 339 339 338 339 339 339 340 339 340 339 340 340 340 339 339 338 338 338 338 337 337 337 338 338 339 338 337 336 335 336 335 333 333 333 332 332 332 333 333 332 332 333 332 329 328 330 332 332 333 332 331 331 329 329 328 328 329 330 331 329 329 328 327 327 327 326 327 329 329 327 326 325 325 326 326 327 327 326 324 324 326 328 328 328
339 339 338 337 338 338 338 339 338 339 338 339 339 339 339 338 337 337 338 338 337 336 336 338 338 338 338 338 337 335 336 335 332 332 333 333 333 332 332 333 333 332 333 333 332 330 330 332 333 333 332 331 331 330 329 328 329 330 331 331 330 329 328 327 327 326 327 327 329 329 329 328 328 327 327 327 327 327 327 326 326 327 329 329 329
339 339 338 337 337 337 338 338 338 338 337 338 338 338 339 338 337 337 337 337 337 337 336 338 338 338 338 338 337 336 335 334 332 332 333 334 334 332 331 332 333 331 330 332 333 332 331 332 333 333 332 332 331 330 329 329 330 331 331 331 330 329 328 328 326 326 327 327 328 329 329 329 329 329 328 328 329 328 328 329 329 329 329 330 330
338 339 339 338 337 337 337 338 337 337 337 337 338 337 337 338 337 337 337 337 337 336 336 337 337 338 338 338 338 336 335 335 334 333 333 333 334 334 332 331 332 331 330 330 332 332 332 332 332 333 332 332 332 331 331 331 331 331 331 331 330 328 328 327 326 326 326 326 327 328 328 328 328 329 329 329 329 329 329 329 330 330 330 330 330
338 339 339 338 338 337 338 338 338 337 337 338 338 337 336 337 338 337 337 337 337 336 336 336 336 338 339 338 338 337 336 336 335 333 333 333 335 335 333 330 329 330 330 329 330 331 332 332 332 332 332 333 333 332 332 331 331 331 331 331 330 328 328 327 326 326 326 326 327 328 328 328 328 329 329 329 329 329 329 329 330 330 330 330 329
337 339 339 338 338 337 337 337 338 338 338 339 339 337 335 335 336 337 337 337 337 336 335 335 336 338 339 338 338 337 337 336 335 334 333 334 335 334 331 327 325 328 330 329 329 330 332 333 333 332 332 333 333 332 332 332 331 331 331 331 329 328 327 327 326 326 326 326 327 326 327 328 328 328 328 328 327 327 328 328 328 329 329 329 329
336 336 336 336 336 336 337 336 337 337 338 338 339 338 335 334 335 336 337 337 337 336 335 335 335 336 337 337 337 337 337 335 335 335 334 335 334 331 328 326 325 326 328 328 329 329 330 332 333 333 332 332 332 332 332 331 331 331 331 330 329 328 327 326 326 326 326 326 326 326 327 327 328 328 327 327 326 327 327 327 327 328 328 328 328
333 332 332 332 333 333 335 336 335 336 336 336 337 337 337 336 336 335 336 336 336 336 335 335 334 335 336 337 337 336 336 334 333 335 335 335 335 331 329 329 328 327 327 328 329 329 329 330 331 332 333 332 332 332 332 331 331 331 330 329 328 328 327 325 326 326 326 326 326 327 327 328 328 328 327 326 326 326 327 327 328 329 328 328 328
330 330 331 331 331 331 332 333 334 335 335 335 335 336 336 336 337 336 336 336 335 335 335 334 334 335 336 336 337 336 335 333 333 334 334 335 335 333 331 331 331 331 329 328 328 328 328 328 330 332 332 331 331 332 331 331 331 330 329 328 327 327 326 326 326 327 326 327 327 327 328 328 328 327 325 325 325 326 326 327 328 328 329 328 327
331 331 331 331 331 331 332 332 332 334 334 334 334 334 335 335 335 334 335 335 334 334 334 333 333 333 335 336 336 336 334 333 333 334 334 335 335 333 332 332 333 333 332 330 328 328 329 330 331 331 331 331 331 331 331 331 330 329 329 328 327 326 326 325 327 327 327 327 327 328 328 328 328 326 324 324 325 326 326 327 327 328 329 328 327
332 332 330 331 331 331 332 331 332 333 334 334 334 334 334 334 333 332 334 334 333 332 332 332 332 333 335 336 336 336 335 334 334 334 335 335 335 333 333 333 334 334 334 333 331 330 331 332 332 331 330 331 331 331 331 331 330 330 329 328 327 326 326 325 327 327 327 327 327 328 328 328 328 325 323 324 325 326 326 326 326 327 328 328 328
332 331 330 330 331 331 331 331 332 333 333 333 333 334 334 334 334 333 334 333 332 332 332 332 331 332 334 334 335 336 335 335 335 335 335 336 336 335 334 334 334 333 333 333 333 333 333 332 332 331 331 330 331 330 330 331 331 330 329 329 328 328 328 327 328 327 327 327 327 327 327 327 327 324 324 326 326 326 326 326 326 327 327 328 327
332 332 331 331 330 331 331 331 331 332 333 333 333 334 334 334 334 334 334 333 332 332 332 332 331 331 332 332 333 335 335 335 335 335 335 335 336 336 335 334 333 333 332 332 333 333 333 332 332 332 331 331 331 330 330 330 330 331 330 329 329 329 330 330 329 328 328 328 328 328 327 328 327 325 325 326 326 326 326 325 326 327 327 327 325
334 334 333 332 332 332 332 331 331 332 333 334 334 334 335 334 334 334 334 333 333 332 332 332 331 330 330 331 332 333 334 334 334 333 333 334 334 335 335 333 333 333 333 332 331 332 332 332 332 332 332 331 330 330 330 330 330 331 330 330 330 330 329 330 330 330 329 329 329 328 328 328 328 327 326 326 326 326 325 325 326 326 326 326 322
333 333 333 333 333 333 333 332 332 333 334 335 335 335 334 334 334 334 334 333 333 332 332 332 331 331 331 331 332 332 333 333 333 331 331 332 332 333 333 332 332 333 333 332 331 331 331 331 332 332 332 332 331 330 330 330 330 331 331 331 330 330 329 329 329 330 329 329 329 328 328 327 328 328 327 327 326 326 325 325 325 325 326 324 320
329 329 331 331 332 333 333 332 333 333 334 334 335 334 334 334 334 334 334 334 334 333 333 331 331 331 332 332 332 333 333 332 332 331 330 331 331 331 330 331 332 331 332 332 331 331 331 331 331 332 332 332 331 331 330 329 329 330 329 330 328 328 329 329 328 329 328 328 328 328 328 328 328 329 328 328 327 326 326 325 325 325 325 323 319
325 327 328 328 329 330 330 330 331 331 332 333 334 334 334 334 334 334 334 334 334 334 333 331 331 331 332 333 333 333 333 332 332 331 330 331 331 330 329 330 331 331 332 331 331 331 330 331 331 332 332 332 331 331 331 330 330 330 329 329 327 327 330 330 329 329 328 327 328 327 327 327 328 329 329 328 327 327 326 325 325 325 324 323 321
321 323 325 326 326 327 328 329 329 329 329 331 333 334 334 335 335 334 334 333 333 333 332 331 331 332 333 333 332 333 333 333 333 332 331 330 330 329 329 330 330 331 331 331 331 330 330 331 331 331 332 332 332 332 332 330 330 330 330 329 329 329 330 330 329 330 329 327 327 327 327 327 328 329 329 329 328 327 327 326 325 324 323 322 322
318 320 321 322 324 325 326 327 328 328 327 328 330 333 335 335 335 335 334 334 333 333 332 331 331 332 332 332 332 332 332 332 332 332 331 330 329 329 330 330 330 331 331 331 330 330 330 331 331 331 331 331 332 332 332 331 330 331 331 330 329 330 330 329 329 329 329 329 328 328 328 327 328 328 328 328 328 327 327 326 325 324 323 322 322
315 317 318 319 321 322 323 325 327 328 328 327 328 331 333 334 335 335 334 334 334 333 332 332 331 331 331 332 332 332 332 332 331 331 330 330 330 330 330 330 331 331 331 331 330 329 330 331 331 331 331 331 332 332 331 331 331 331 331 331 330 330 329 329 329 328 329 330 329 328 328 327 328 329 328 327 327 326 326 326 326 325 324 323 321
Wind_Speed
21 21 22 23 25 25 24 24 24 25 26 27 28 27 26 26 26 26 26 26 25 24 23 21 20 19 19 20 22 21 22 24 24 25 24 22 22 21 21 20 19 19 19 20 21 21 21 22 23 23 23 22 22 21 21 20 19 19 18 17 17 18 19 19 21 20 16 14 15 17 17 18 18 18 19 19 19 19 18 17 18 18 18 18 18
23 22 22 22 25 25 24 24 24 26 26 27 27 27 26 24 24 24 25 25 24 23 22 21 20 19 20 20 21 21 21 24 24 25 25 22 21 21 21 20 20 20 20 21 22 22 22 23 23 24 24 23 23 22 22 21 20 19 19 18 17 18 19 20 21 21 19 15 16 17 19 20 19 18 18 18 18 18 17 16 17 17 17 16 17
22 22 22 22 24 25 24 23 24 25 26 26 26 27 27 26 25 24 24 24 23 22 21 20 20 19 20 20 20 20 20 23 24 24 24 22 22 21 20 20 20 20 21 21 22 24 23 24 24 24 24 24 23 23 23 22 21 20 19 19 18 18 19 19 19 20 20 19 18 17 18 19 19 17 16 17 17 16 16 16 16 16 15 14 15
21 21 21 22 23 25 24 23 24 25 26 26 26 26 26 26 25 24 24 23 22 21 20 20 20 19 20 21 20 21 21 22 23 23 24 22 21 21 21 20 19 20 21 21 22 24 24 24 24 24 23 23 23 23 22 22 21 20 18 18 17 17 18 17 17 18 19 20 19 17 16 16 16 15 14 15 16 16 16 16 16 16 16 15 16
21 21 22 22 22 24 24 24 24 24 25 25 25 25 25 24 23 22 21 21 21 20 20 19 20 21 21 21 21 21 21 21 22 22 23 22 21 21 21 20 20 20 20 20 21 21 22 22 22 22 22 21 21 21 21 21 20 19 18 17 15 15 15 15 15 16 16 17 18 16 14 14 14 13 13 15 16 16 16 17 17 17 18 18 19
20 20 22 22 22 23 24 24 24 24 24 24 24 23 23 22 20 19 19 19 19 19 19 19 20 21 20 20 20 21 21 21 21 22 23 22 21 21 21 20 20 20 19 19 19 19 19 19 19 21 20 19 19 20 20 19 19 19 17 16 14 14 12 11 11 12 13 15 16 15 13 13 13 13 14 16 17 17 18 19 19 19 19 20 19
19 20 21 22 21 21 24 24 24 24 24 24 22 22 22 20 20 19 18 19 19 19 19 20 21 20 19 18 19 20 21 21 20 21 23 22 21 20 20 20 20 19 19 19 18 18 17 16 17 19 19 18 17 17 18 19 18 17 17 16 14 13 11 9 8 9 12 15 15 14 14 13 14 14 15 17 17 18 18 18 18 19 19 19 18
19 19 20 22 21 22 24 24 24 24 24 24 22 22 21 21 20 19 19 19 19 20 21 21 20 19 19 19 19 21 21 21 20 21 23 22 20 20 19 19 19 18 18 19 18 17 16 16 16 17 17 17 17 16 16 17 17 17 16 16 14 13 12 10 9 11 14 15 15 15 15 15 16 16 17 17 17 18 18 18 18 18 18 18 18
19 18 18 20 20 22 24 23 23 23 24 23 22 22 20 21 20 19 19 19 19 20 21 20 19 19 19 18 19 19 20 20 19 21 22 22 21 20 19 19 19 18 18 19 17 16 16 16 16 16 17 18 17 16 16 16 16 15 15 15 14 13 13 13 14 15 15 16 16 16 16 17 18 18 18 17 16 17 18 18 17 17 17 17 16
18 18 17 18 20 23 23 22 23 23 24 23 22 21 20 20 20 20 19 19 19 19 20 19 19 19 19 18 17 18 18 17 18 19 20 20 21 21 19 19 18 18 17 17 16 16 16 16 16 16 17 18 18 17 16 16 15 13 13 13 13 14 14 15 18 16 15 16 17 17 18 18 19 18 18 17 17 16 17 17 16 16 16 16 16
17 18 18 18 21 23 23 23 23 23 23 22 21 20 19 18 19 20 19 18 18 19 19 19 19 19 19 18 17 18 17 17 18 18 17 18 19 20 19 19 18 17 16 16 16 17 16 16 16 16 17 17 17 17 17 16 14 13 12 13 13 13 14 17 17 15 16 17 17 18 19 20 19 18 17 18 18 17 16 16 16 16 16 16 16
17 19 19 20 21 22 23 22 23 22 21 21 20 19 18 18 19 19 19 19 18 19 19 19 18 18 19 18 17 17 16 16 18 17 16 16 18 19 18 18 17 16 16 16 17 17 15 15 15 16 16 16 16 17 16 15 13 12 12 12 13 13 15 18 16 15 17 17 18 19 19 19 18 17 17 17 17 17 16 16 15 16 16 16 15
18 18 19 21 21 22 23 22 22 21 21 20 19 19 18 18 19 18 19 19 18 18 19 19 18 19 19 18 17 16 16 16 17 16 15 14 16 18 18 18 17 16 17 17 18 16 14 14 15 15 16 16 16 16 16 15 13 12 12 12 13 14 17 19 15 15 16 17 18 18 18 18 17 16 16 16 16 16 15 15 15 15 15 14 14
18 19 20 20 20 22 22 21 21 20 20 19 19 18 18 19 19 18 18 19 20 19 19 18 18 20 19 18 18 16 16 16 16 15 14 14 14 16 17 17 17 17 17 17 17 15 14 13 14 15 15 16 15 16 15 14 13 12 12 12 14 16 18 17 15 15 16 16 17 17 17 16 16 16 15 15 15 15 14 14 13 13 12 12 14
18 19 20 20 20 21 20 20 20 19 19 18 18 18 18 19 19 19 17 19 21 20 19 19 18 20 20 19 18 17 17 17 16 14 13 13 14 14 15 15 15 15 17 17 16 15 14 13 13 15 16 16 15 15 15 14 13 12 12 13 13 15 17 16 15 15 15 15 16 15 16 15 15 16 16 15 15 14 14 13 13 12 12 12 14
18 19 20 20 20 20 19 19 19 18 17 17 17 19 19 19 20 20 18 19 20 20 20 19 19 20 20 19 18 17 17 15 15 14 12 12 13 13 14 15 14 15 16 16 15 15 14 13 14 15 17 16 15 15 14 14 13 12 12 13 13 14 16 16 14 14 14 14 15 15 15 15 15 15 15 15 15 14 13 13 14 13 13 14 13
19 19 19 20 20 20 19 18 18 18 17 17 17 19 20 19 20 20 19 18 19 20 20 19 19 19 20 19 18 16 15 14 13 12 12 12 12 12 13 14 15 16 16 15 15 14 14 14 14 16 17 16 16 15 14 13 13 12 13 13 14 13 15 16 13 13 14 14 15 15 15 15 15 14 14 14 14 14 14 14 13 13 15 15 14
19 19 19 20 20 20 19 18 17 17 16 16 16 18 18 18 19 19 19 18 18 19 19 19 18 18 19 19 18 17 15 14 12 11 11 11 11 12 12 14 17 17 16 15 14 14 14 14 15 17 17 16 16 15 14 14 13 14 13 14 14 13 15 15 13 13 13 13 13 14 15 15 15 14 13 14 14 13 13 13 13 13 15 14 13
17 19 19 20 20 19 19 19 17 16 16 15 15 15 16 17 17 18 18 18 18 18 19 18 17 18 19 18 17 16 15 14 12 10 11 12 11 11 11 14 18 18 17 16 14 15 15 15 16 17 17 16 15 14 14 14 14 14 14 13 13 14 15 14 12 12 12 12 12 13 14 15 14 13 13 14 14 13 13 13 13 14 13 12 12
17 19 19 19 19 18 18 19 18 18 17 16 15 14 14 15 16 17 17 17 17 17 17 16 16 18 18 16 15 15 14 14 12 11 12 12 12 11 11 15 19 19 17 16 15 15 15 16 16 17 17 16 15 14 13 14 14 14 14 14 14 14 15 13 12 12 11 11 12 13 13 13 13 14 14 13 13 13 14 14 14 14 13 13 13
18 18 19 20 19 18 18 19 18 18 18 16 16 16 15 14 15 16 16 16 16 16 16 15 16 17 17 16 16 15 14 14 13 12 12 12 12 11 12 16 19 19 18 17 16 15 16 16 16 17 17 16 15 14 13 13 14 14 14 14 14 14 14 13 12 11 10 11 11 12 13 13 13 13 13 12 13 13 13 13 13 13 13 13 13
18 17 17 19 19 18 18 17 17 17 18 17 16 16 16 15 15 15 15 15 16 16 16 16 17 18 17 16 16 16 15 15 14 13 12 12 12 12 12 16 19 19 17 17 16 16 16 17 17 17 16 15 15 14 13 12 13 13 13 13 13 13 14 13 11 10 10 10 10 11 12 12 12 12 13 13 13 13 13 13 13 13 13 13 13
17 17 17 18 17 18 18 17 17 17 18 17 16 16 17 16 16 16 16 16 16 16 16 17 18 19 17 16 16 16 15 15 14 14 13 12 12 12 12 16 19 18 17 17 16 16 17 17 17 16 15 14 14 15 13 12 12 12 12 12 12 13 13 12 10 10 10 10 11 11 11 10 10 11 12 12 12 12 13 13 13 13 13 13 13
17 17 16 17 17 17 18 17 17 18 17 17 16 16 17 17 17 17 16 17 17 17 17 17 18 17 17 16 16 16 15 14 15 15 13 12 12 12 12 15 18 18 18 17 17 17 17 17 16 15 14 13 14 15 14 13 13 12 12 11 12 12 12 11 10 9 9 10 10 10 10 11 10 10 11 11 11 12 12 12 13 13 13 12 13
17 16 15 16 17 18 18 18 18 18 17 17 16 17 18 16 17 18 18 18 18 18 18 18 17 16 16 16 16 15 14 14 15 15 13 12 12 12 11 13 14 15 17 17 18 18 17 17 16 14 13 13 13 14 15 14 13 12 11 11 11 11 10 10 9 9 9 9 9 8 10 10 9 9 9 10 10 11 11 11 12 12 13 12 12
17 17 16 16 16 18 19 18 18 19 18 16 16 18 18 16 16 18 18 17 17 18 18 17 16 17 17 16 16 15 14 13 13 13 13 12 12 12 10 11 12 13 17 18 18 18 17 17 16 15 13 13 14 14 14 14 13 12 11 11 11 10 9 9 9 9 9 8 8 9 10 9 8 8 8 9 9 10 10 11 12 12 12 12 12
17 16 17 17 17 18 19 19 19 20 20 18 17 18 18 15 15 15 15 16 17 16 16 16 16 17 17 16 16 16 15 13 12 12 13 13 12 11 10 10 10 12 17 18 18 17 16 16 16 16 15 14 14 14 13 13 12 11 11 11 10 9 9 9 9 8 8 7 7 10 10 9 7 7 7 8 8 9 10 11 12 12 12 12 12
16 16 16 17 18 18 20 20 20 21 20 20 18 18 17 15 15 15 16 17 17 16 14 15 17 17 16 15 16 15 14 13 12 12 11 12 12 11 9 9 9 11 16 18 18 18 16 16 17 17 16 16 15 14 13 12 11 11 10 10 10 9 9 9 8 7 7 7 7 8 9 8 7 7 8 8 8 9 10 10 11 12 12 12 11
16 16 16 17 19 19 20 21 21 20 19 20 19 18 17 17 16 16 16 17 17 17 15 15 16 16 15 15 15 14 13 12 12 12 10 10 11 11 10 9 10 11 15 18 18 18 17 16 17 18 17 16 15 14 13 12 10 10 9 10 9 8 9 8 7 7 7 7 7 7 8 9 8 8 10 9 9 10 10 10 11 11 12 12 13
17 16 17 18 18 18 19 20 21 19 18 19 18 17 17 17 17 16 16 15 16 17 16 15 15 15 14 14 15 14 13 12 12 12 11 10 11 12 10 12 14 12 13 17 19 18 18 17 17 18 18 16 15 14 13 12 10 9 9 9 7 6 7 8 8 8 8 8 7 7 10 11 10 10 10 9 9 9 9 10 10 11 12 12 13
16 16 17 17 16 16 17 19 20 18 19 20 17 15 17 17 16 16 16 14 14 17 16 15 14 14 14 15 14 15 13 11 11 12 10 10 12 12 10 13 16 14 12 14 18 18 17 17 16 17 18 17 15 14 13 12 11 10 8 7 6 6 6 7 8 9 8 8 7 8 11 13 12 11 10 9 8 8 8 9 10 10 10 10 10
16 17 17 16 16 16 16 17 18 18 19 19 16 15 15 15 15 15 15 14 14 16 16 15 15 13 14 16 15 15 13 10 10 11 10 10 11 10 10 12 14 12 10 11 16 18 17 16 16 16 16 16 15 14 13 13 13 10 8 6 6 6 6 7 8 9 8 8 8 9 11 12 12 11 10 9 8 8 8 9 9 8 8 9 9
15 15 15 15 16 15 15 16 17 17 17 17 16 15 14 14 15 14 14 14 14 15 15 15 16 14 14 16 16 15 13 11 12 12 10 10 10 9 10 12 12 11 10 10 13 15 15 16 16 15 16 16 15 14 14 14 12 9 8 7 6 7 7 7 8 8 8 8 8 9 10 10 10 9 9 8 7 8 8 8 8 7 7 7 7
13 13 15 16 15 14 14 15 16 16 15 15 15 14 13 12 13 13 13 13 13 15 15 15 15 14 15 16 16 16 14 13 14 12 10 11 10 9 11 14 13 12 12 11 11 13 13 14 16 15 15 15 14 15 14 12 10 8 7 7 7 7 7 7 8 8 8 8 8 8 9 9 8 6 6 6 5 5 6 6 6 6 6 6 5
13 12 14 14 13 13 13 13 15 16 15 14 15 14 12 10 11 12 14 13 13 15 15 14 14 15 16 16 15 16 15 13 12 12 12 11 11 11 12 13 15 15 15 13 11 12 12 12 14 14 12 11 11 11 11 9 8 8 8 7 7 7 7 7 7 8 8 8 8 7 7 8 7 5 4 4 4 4 4 4 4 5 5 4 4
14 11 11 11 11 12 11 10 12 15 16 15 16 15 12 10 10 12 14 14 14 15 14 13 13 14 14 15 15 15 14 12 12 13 13 12 12 11 11 12 16 18 17 16 14 13 13 12 13 13 12 10 10 9 8 8 8 8 8 7 7 7 7 7 7 8 8 8 8 7 6 6 6 4 2 3 3 3 2 3 4 4 4 4 4
14 9 8 8 9 9 9 8 8 13 15 15 15 15 13 12 12 12 13 13 14 14 13 12 13 13 14 16 17 15 13 13 13 14 14 14 13 12 12 13 18 20 19 19 17 15 14 12 12 13 12 11 11 9 8 8 8 8 8 7 7 7 7 7 8 8 8 9 8 7 7 6 5 3 2 2 2 2 1 2 3 4 4 5 4
6 5 5 4 3 5 7 6 6 9 12 11 11 13 14 14 14 13 13 13 13 14 14 14 14 14 14 17 17 15 14 14 15 15 15 15 14 14 14 13 16 19 20 20 19 17 15 12 12 12 11 11 11 9 9 8 8 9 9 8 7 7 6 7 7 8 8 9 9 8 8 6 4 2 2 2 2 2 2 2 3 4 4 5 5
16 19 18 16 14 12 9 6 4 4 7 7 7 11 14 15 15 15 15 15 13 12 13 14 15 16 16 15 15 14 16 17 18 18 16 16 15 16 16 14 15 17 19 20 19 18 17 15 14 11 9 9 9 8 9 9 9 9 9 9 8 7 6 6 7 8 8 9 9 8 7 6 4 3 2 1 1 3 3 2 3 4 4 5 6
20 19 14 9 8 11 13 8 5 2 3 6 8 11 13 14 14 14 15 14 12 10 12 15 15 17 17 15 14 15 18 20 20 20 19 18 16 16 16 16 15 15 17 19 20 20 20 18 14 10 9 9 8 8 9 9 10 8 8 8 8 8 7 7 7 8 8 9 9 8 7 6 4 3 2 1 2 3 3 3 3 4 5 5 6
6 4 5 3 3 1 3 4 5 5 5 7 9 11 13 15 14 14 15 14 13 13 14 16 17 19 19 17 16 18 21 22 22 22 21 20 20 21 20 19 18 17 17 19 21 20 18 16 12 10 12 12 9 9 10 11 11 9 8 8 8 8 8 8 8 8 9 9 9 8 7 6 4 3 2 2 2 2 3 3 4 5 6 7 7
5 5 3 1 2 7 9 11 13 11 9 9 11 12 14 16 16 17 16 13 14 17 17 17 19 20 20 21 21 21 23 24 23 23 23 22 23 25 25 22 20 19 17 17 19 18 15 15 13 12 13 13 10 11 13 13 12 11 10 9 8 8 9 9 9 9 9 8 8 8 7 6 4 4 3 3 3 3 3 3 4 6 7 8 8
4 2 3 1 2 7 11 12 11 9 8 8 9 11 13 14 15 16 17 13 13 18 19 17 19 20 20 23 24 21 22 26 24 22 22 22 23 25 26 25 22 19 16 15 17 17 15 15 15 14 13 13 11 13 15 13 13 13 12 8 7 7 6 8 9 10 10 9 9 8 8 7 5 4 4 4 4 4 4 4 4 6 7 8 8
4 2 3 2 5 9 11 9 9 10 9 9 9 10 11 11 10 10 14 15 17 18 18 19 23 23 21 23 26 24 24 27 24 19 21 22 22 23 24 25 25 22 18 16 15 16 16 15 16 16 15 15 14 14 15 14 14 14 10 6 7 7 4 7 11 11 10 10 10 9 9 8 7 6 5 4 4 5 4 4 5 6 7 7 7
5 3 1 4 8 12 13 12 11 10 9 9 9 9 9 10 8 7 9 13 15 15 14 18 23 23 22 22 24 23 22 23 21 21 24 25 25 25 23 23 24 24 20 18 17 16 15 15 17 18 17 17 16 15 16 15 15 14 10 5 5 5 4 9 12 10 11 11 10 10 10 9 8 7 6 6 5 5 5 5 5 7 7 6 7
9 7 5 7 8 9 12 12 11 9 8 7 8 8 8 9 9 10 12 10 10 13 16 17 20 21 21 21 22 21 19 18 17 19 22 24 24 25 25 24 22 23 21 19 20 20 16 15 17 18 18 18 17 16 17 17 16 16 13 9 5 3 5 11 9 6 10 11 10 11 11 9 8 8 8 7 6 6 5 5 5 6 7 6 7
14 11 9 9 9 7 8 9 9 8 9 9 9 7 6 7 8 11 13 12 12 17 20 20 21 20 18 19 19 19 17 16 16 17 21 24 23 22 24 25 23 23 22 20 22 22 17 15 17 18 18 18 17 16 18 18 18 18 17 13 7 3 7 12 9 6 8 9 10 11 10 10 9 8 9 8 8 7 6 6 6 6 6 6 7
16 15 14 14 13 12 11 11 10 10 10 10 10 9 7 6 8 10 12 14 15 16 16 18 20 18 17 18 19 19 18 18 19 19 21 24 23 22 22 23 24 23 22 22 23 23 20 16 17 18 18 18 18 17 18 19 18 18 17 13 8 5 9 12 11 9 8 7 8 8 9 10 9 9 9 9 9 8 6 6 7 6 6 6 7
20 17 16 16 15 14 13 12 12 12 13 12 9 10 10 8 9 12 14 15 17 16 14 16 17 16 17 19 20 21 20 19 18 17 19 22 21 21 21 23 25 23 21 21 22 24 23 19 19 20 18 17 18 17 17 19 18 17 18 16 10 7 9 9 10 11 8 7 7 8 10 10 10 11 10 10 10 9 7 6 7 7 6 7 7
24 19 18 18 17 16 16 15 12 11 12 13 10 7 9 11 12 14 14 15 16 17 16 16 15 16 19 20 21 21 20 18 18 17 19 20 19 20 23 25 26 25 22 21 22 24 23 20 21 24 22 17 16 17 17 18 17 16 17 18 14 11 11 9 11 12 9 7 6 8 12 12 10 11 11 11 10 9 9 8 7 7 7 7 7
27 24 22 22 20 18 19 18 14 12 11 11 10 7 9 13 14 13 13 14 15 16 15 16 16 16 18 20 20 18 16 16 17 17 19 20 19 21 24 26 24 24 23 22 25 26 24 21 21 23 24 21 18 18 16 15 16 16 17 18 16 14 13 12 12 15 12 8 7 8 12 13 11 11 11 11 10 10 10 9 8 8 8 8 7
Wind_Direction
150 149 153 158 153 152 152 151 150 147 146 143 143 142 140 141 143 145 145 145 144 143 141 139 135 130 127 127 127 125 123 121 118 115 114 111 112 113 112 109 106 103 101 101 100 98 98 98 97 98 97 97 98 98 97 96 95 95 96 99 98 95 94 93 95 97 97 94 90 93 93 90 89 90 92 93 91 87 85 82 78 76 74 75 74
147 149 150 154 153 153 153 152 152 149 148 146 145 145 143 140 139 140 142 144 143 142 140 138 134 130 127 127 126 126 124 123 120 118 117 116 114 112 112 110 105 102 101 102 101 100 99 99 98 97 97 97 97 97 96 96 95 94 95 97 96 94 93 92 92 96 100 96 88 87 88 88 88 87 89 88 86 84 83 81 79 75 73 74 71
143 148 148 151 152 152 153 154 153 151 150 149 148 147 147 144 142 141 142 142 142 141 138 134 131 129 128 127 127 127 126 124 120 119 120 118 116 114 113 112 107 103 102 103 102 101 99 99 99 97 96 96 96 96 96 96 95 94 94 93 93 94 94 93 93 97 100 98 92 87 84 84 85 84 84 85 85 84 81 80 80 77 73 71 67
141 144 146 149 151 152 153 155 154 153 152 151 150 149 148 147 146 144 143 143 141 138 135 133 130 130 130 129 128 127 125 122 120 121 122 120 118 117 116 114 109 106 105 104 104 103 101 100 99 98 96 95 95 95 96 97 96 93 92 89 89 93 93 94 96 99 100 102 99 94 88 81 80 80 80 80 80 79 77 76 77 76 71 68 68
140 143 146 146 148 152 154 155 155 155 154 154 153 151 148 147 146 144 141 140 137 134 133 133 132 132 130 129 128 127 126 124 123 123 123 123 122 119 119 117 112 109 108 106 105 103 103 102 101 101 98 95 96 96 96 96 96 93 91 89 87 88 89 93 98 99 99 102 99 94 92 85 78 75 74 75 74 74 74 75 77 77 72 71 73
139 144 146 145 147 151 154 155 156 156 155 153 151 148 147 145 145 140 137 136 133 133 134 132 131 130 128 129 129 129 128 126 125 125 126 125 124 122 122 120 117 114 111 108 105 103 101 101 103 105 101 95 97 100 99 98 97 96 95 92 89 86 85 87 90 92 93 94 93 92 94 92 85 78 76 77 75 73 74 75 76 76 75 74 76
139 145 149 147 147 152 155 155 157 157 155 151 145 144 145 143 140 135 134 134 133 133 134 132 128 128 130 131 131 130 128 126 126 127 127 126 127 126 126 123 121 118 115 112 107 104 100 100 105 107 102 98 100 101 102 102 100 100 98 95 91 85 80 77 78 85 88 86 86 90 93 94 91 85 83 83 82 80 80 80 79 80 81 80 78
140 146 150 148 148 154 155 155 157 155 154 150 144 144 146 143 137 135 136 135 135 134 133 131 127 130 132 132 129 128 128 128 128 129 128 128 130 129 128 126 123 123 120 117 112 107 103 104 108 104 100 100 103 104 104 101 100 100 97 92 87 82 77 77 85 87 86 85 86 89 91 92 91 89 90 89 88 89 87 85 84 84 85 85 81
143 147 149 148 149 153 153 155 155 154 153 150 148 147 145 143 138 137 138 136 136 134 131 129 130 133 133 130 127 125 127 126 127 131 132 132 133 130 130 128 127 128 124 121 116 111 111 111 109 102 99 101 101 103 103 101 102 100 95 91 87 85 82 86 93 89 86 86 87 89 91 91 90 91 93 90 88 88 87 85 84 83 82 82 80
145 148 147 146 150 154 154 155 154 155 153 150 150 148 142 142 141 138 137 137 136 133 132 132 134 135 133 131 128 127 126 123 124 128 130 132 134 132 132 132 131 130 126 121 117 117 118 113 106 100 100 102 100 98 99 100 100 99 97 94 92 92 90 93 96 91 90 90 89 90 91 91 90 90 93 91 88 87 87 86 84 82 79 77 77
147 150 148 148 155 157 154 154 155 155 152 151 150 146 141 144 146 140 138 138 137 135 134 136 137 136 135 133 130 128 127 126 127 127 128 131 132 133 135 138 135 131 127 122 122 122 118 110 102 97 100 102 99 96 97 98 97 99 100 96 95 93 96 101 99 94 94 95 94 91 90 92 91 91 91 90 87 87 88 87 83 81 80 78 78
151 152 150 151 158 157 155 155 154 152 150 150 149 145 143 147 147 142 141 140 138 138 138 140 140 138 138 134 131 130 130 132 131 130 131 131 136 137 139 141 137 133 131 128 128 124 116 106 99 95 97 100 98 94 96 98 99 102 101 100 97 94 102 104 100 98 98 97 95 93 91 91 92 92 90 88 86 85 87 87 85 84 84 82 81
152 152 153 154 158 156 155 154 152 151 150 150 149 148 148 148 146 144 144 142 139 140 142 144 142 141 140 136 135 133 134 137 133 130 128 129 137 141 141 141 139 138 135 133 130 123 115 105 97 95 97 99 98 95 97 99 99 103 105 103 100 102 108 105 100 101 100 97 94 94 93 91 90 90 89 88 85 84 85 85 87 87 86 85 80
152 152 155 155 157 156 154 153 151 151 152 153 153 152 151 150 147 145 145 144 143 143 146 146 146 144 141 140 139 136 135 137 132 127 127 127 132 140 142 141 141 140 137 135 131 125 115 103 97 98 101 103 101 98 98 98 98 103 107 107 107 111 111 104 101 102 101 99 96 95 94 94 94 91 89 90 89 88 86 85 89 90 88 85 79
152 153 155 154 157 157 155 153 153 152 153 155 157 155 153 151 148 145 144 146 146 146 148 148 149 147 145 145 142 138 135 135 132 128 131 131 127 133 140 143 143 142 141 139 134 126 113 104 104 106 108 108 106 102 99 97 98 102 107 110 113 117 113 106 103 103 103 101 98 96 95 99 101 98 95 94 93 93 91 90 90 89 88 87 84
152 154 155 156 158 159 158 156 155 154 154 155 157 155 152 151 149 146 145 149 150 150 150 150 153 152 150 147 142 139 136 137 137 135 137 134 128 129 136 143 144 144 146 144 136 125 113 109 113 115 115 114 108 102 98 97 97 102 109 112 116 118 114 109 105 103 104 103 100 98 98 102 104 102 101 98 96 96 97 95 92 91 92 91 89
154 156 157 159 160 161 160 160 159 155 154 154 155 154 152 152 151 148 148 152 156 154 153 154 156 156 154 148 142 140 139 141 141 140 142 136 131 130 135 144 148 149 149 144 136 124 114 114 120 122 121 117 109 101 97 96 98 105 111 115 117 117 115 111 105 103 104 104 102 101 102 105 105 103 102 101 100 100 99 98 98 99 97 95 93
156 158 159 160 162 162 160 162 161 155 154 154 155 155 153 153 153 152 152 155 160 160 157 156 157 157 153 146 143 142 142 143 143 144 147 142 135 133 136 146 150 151 149 143 134 124 118 120 124 126 125 119 109 101 96 97 102 108 113 117 116 115 115 110 103 104 104 102 101 101 105 109 107 105 106 104 102 101 100 103 104 102 100 100 101
158 159 160 162 164 162 160 162 162 158 157 157 157 157 155 153 154 155 157 158 161 163 161 159 158 153 148 145 144 144 145 143 144 149 150 146 138 135 137 145 150 151 149 143 134 126 123 126 128 129 126 119 110 103 99 99 105 110 114 116 114 112 110 107 104 105 103 100 100 102 109 112 109 106 106 106 106 104 102 104 103 101 100 101 103
159 160 160 164 166 164 162 165 165 164 162 160 157 157 158 156 156 160 161 159 160 164 163 160 155 150 148 148 148 148 149 144 143 149 149 147 141 136 137 145 150 149 148 143 135 130 128 129 131 130 125 118 110 104 100 102 107 111 115 116 113 110 108 108 107 105 103 102 101 104 112 112 108 107 108 109 108 106 104 104 102 101 99 96 96
162 162 164 166 169 168 167 168 168 167 165 161 158 158 160 158 158 161 161 159 160 163 161 156 151 153 155 155 154 156 157 150 145 148 148 149 143 136 140 145 149 149 148 143 137 133 132 132 133 132 126 119 110 104 101 102 108 112 115 117 113 111 112 112 109 105 104 103 102 109 115 110 108 110 110 109 106 106 105 104 103 101 99 95 94
163 163 166 169 172 173 172 170 168 168 167 163 162 161 161 161 160 160 161 160 160 161 159 156 156 161 165 164 164 165 164 157 150 150 148 148 144 139 143 148 149 150 149 143 138 135 134 135 135 135 129 122 114 109 106 105 108 110 113 115 114 115 117 115 111 108 104 102 105 111 114 110 111 112 110 109 109 109 107 103 102 102 99 97 94
167 166 168 173 176 177 176 172 168 169 169 168 167 165 165 165 163 162 164 163 161 162 162 162 164 169 171 172 173 172 170 162 155 154 151 149 147 143 144 150 151 151 150 145 140 137 135 136 138 138 133 126 120 115 114 114 113 112 113 114 116 118 117 115 111 108 104 102 104 109 112 110 110 111 111 112 111 109 106 104 103 101 98 98 95
170 169 169 175 179 179 178 176 174 172 172 172 171 169 170 169 166 166 168 168 166 167 169 170 172 173 173 174 176 175 173 166 159 158 156 154 150 146 145 149 151 151 150 145 140 138 136 136 139 141 139 136 128 121 119 119 118 117 116 116 118 119 117 113 109 108 105 100 107 116 118 115 111 111 111 109 109 108 107 107 105 103 100 98 97
170 171 171 176 181 182 180 180 181 178 177 176 174 174 173 171 170 171 172 174 173 173 175 176 177 176 175 175 175 174 172 168 165 162 161 161 157 152 151 152 152 153 154 148 143 141 137 138 140 144 148 147 137 128 124 121 120 120 118 117 118 120 118 112 109 108 104 102 112 115 107 108 109 109 111 110 109 108 108 107 105 105 102 98 99
171 173 174 177 181 183 183 183 183 183 183 181 178 179 178 176 176 175 174 178 179 178 179 179 179 179 179 179 176 173 172 171 172 170 166 167 164 161 160 161 159 158 159 155 149 146 143 141 143 147 152 150 143 134 128 124 124 124 121 120 120 121 119 116 112 108 104 105 118 119 111 111 113 110 111 111 110 110 108 108 106 105 103 99 99
176 178 178 179 180 184 187 186 185 186 188 188 185 184 183 181 179 176 176 180 182 183 183 182 184 185 183 182 179 176 175 175 180 180 173 171 171 169 166 165 163 160 162 162 155 151 148 145 146 148 150 151 146 139 133 130 129 129 127 124 125 125 122 120 115 111 109 107 119 125 122 121 120 117 113 108 109 110 108 106 106 107 103 100 99
181 183 182 183 184 186 190 189 189 189 191 192 189 189 188 185 182 179 180 183 184 186 187 190 193 191 188 188 185 180 179 180 183 186 182 179 179 176 171 167 165 165 166 166 161 156 153 149 147 147 149 151 148 144 141 137 134 132 131 128 128 129 126 123 117 114 115 112 116 121 122 123 124 120 118 115 112 109 106 102 103 104 103 103 103
188 187 188 190 190 190 193 192 192 191 193 195 193 191 191 190 186 182 183 185 187 190 191 194 197 195 193 194 190 185 185 185 186 188 189 190 188 184 182 178 171 168 169 169 166 161 158 153 149 148 149 151 150 148 145 143 140 136 134 132 130 130 129 125 121 119 116 113 115 122 132 137 132 117 112 113 110 108 105 103 103 104 104 105 103
194 192 194 196 195 194 194 195 195 193 196 198 197 195 194 193 189 187 188 189 192 194 193 195 200 200 198 196 194 194 191 190 193 192 192 196 195 191 190 189 181 175 173 171 169 167 163 158 153 149 149 151 152 151 150 148 147 145 142 137 133 132 132 128 125 123 119 113 110 116 126 129 125 116 111 110 107 107 106 106 107 106 106 103 99
197 197 201 201 198 196 194 195 196 197 201 201 199 201 200 196 191 191 193 194 196 196 197 198 201 203 202 200 198 201 200 194 196 197 199 203 202 197 193 192 185 178 177 173 170 171 168 163 157 152 150 153 153 154 156 154 155 154 149 141 138 138 138 133 132 130 125 120 115 117 120 119 118 117 118 118 114 111 110 113 112 109 110 107 102
199 201 204 204 201 198 196 196 196 201 205 202 201 204 204 201 196 196 198 199 199 198 201 203 205 208 207 204 203 206 206 198 200 203 206 206 203 201 194 192 187 178 178 175 172 172 171 166 160 155 153 153 154 157 161 163 162 158 153 149 145 147 145 139 140 139 135 129 125 125 123 119 118 119 119 120 121 121 121 121 116 111 115 114 107
199 203 205 208 206 200 199 199 199 205 208 205 205 205 205 208 204 201 204 206 204 202 206 210 211 214 210 208 207 209 208 205 209 210 207 206 203 201 196 192 190 184 178 174 172 172 172 169 162 157 157 157 157 161 168 172 169 160 159 158 153 156 153 146 148 148 142 139 136 135 134 129 125 121 119 122 129 133 136 134 126 119 119 118 109
197 202 206 210 208 202 202 203 204 205 207 210 211 207 207 214 211 209 214 214 212 210 211 214 214 216 216 213 210 211 213 213 214 214 209 208 205 202 200 196 193 190 185 178 174 175 173 170 166 160 158 161 162 167 173 174 172 165 163 163 161 162 158 153 152 153 153 149 145 143 146 146 139 129 125 134 145 151 152 147 142 135 126 123 120
201 202 207 211 211 208 207 205 210 210 209 212 213 210 209 214 216 216 221 220 218 216 215 217 217 217 218 217 215 215 216 213 214 219 215 210 208 207 206 201 197 193 192 189 181 180 179 174 171 164 160 162 163 168 173 172 172 171 169 168 167 164 160 158 154 157 163 158 150 148 152 154 149 138 130 135 144 156 161 154 153 150 143 141 136
218 209 205 210 212 212 210 204 209 212 210 211 214 218 218 220 225 226 227 225 221 221 222 222 220 220 219 217 218 219 216 213 218 225 223 217 211 209 208 204 199 195 195 195 189 184 182 179 179 176 170 166 166 165 168 172 173 174 176 172 169 167 162 161 161 163 167 164 158 156 157 159 159 153 140 134 131 135 147 145 144 150 153 153 145
231 224 216 218 219 221 218 206 204 209 213 217 218 226 230 225 228 231 232 229 225 225 229 230 225 222 221 219 219 219 219 221 226 229 229 225 217 212 211 205 199 197 197 197 194 191 186 180 181 185 183 174 170 169 165 167 172 176 177 173 170 171 166 164 166 167 168 169 166 165 168 167 168 168 163 153 138 129 145 151 141 140 144 140 133
289 322 338 341 315 269 248 229 218 214 219 224 217 224 234 234 234 236 237 239 236 231 232 235 232 228 226 225 223 219 220 226 228 228 229 228 223 218 213 204 199 200 199 198 197 196 192 186 181 183 191 186 175 172 169 166 171 175 176 175 175 172 168 166 169 169 171 173 170 170 173 171 173 179 177 176 153 143 156 169 144 131 131 128 121
26 29 24 21 17 360 330 289 265 224 220 231 223 221 231 237 238 238 239 243 244 239 239 239 239 239 234 229 226 221 223 230 231 227 225 227 224 221 216 207 200 200 202 201 199 198 196 196 193 184 187 188 180 174 168 165 170 170 172 179 178 171 168 169 170 171 173 176 173 172 174 174 179 183 176 180 163 152 153 157 143 124 119 119 115
40 36 21 3 1 6 7 356 342 323 236 245 245 237 235 236 238 241 243 245 248 247 248 249 249 247 243 237 229 225 228 235 237 231 226 226 225 222 222 218 208 203 204 203 201 201 198 197 196 182 174 176 179 177 168 165 162 150 157 178 177 166 172 177 171 172 174 174 172 173 176 179 180 178 170 157 150 152 149 146 138 123 111 111 111
24 336 299 285 241 202 39 350 289 254 233 225 227 232 232 232 233 238 242 245 247 249 252 255 256 253 251 246 236 231 235 238 239 236 232 229 225 220 221 224 221 213 210 208 207 204 198 194 186 178 186 186 177 177 174 164 154 140 139 163 173 170 178 183 177 177 177 173 174 176 180 183 178 168 156 140 141 140 135 132 129 124 116 113 112
276 262 244 235 219 217 228 245 238 225 219 211 213 222 226 230 232 235 237 234 240 250 251 252 256 256 252 250 245 238 238 240 240 239 235 231 228 223 220 224 226 224 218 213 212 206 194 189 181 176 192 194 181 178 178 168 162 158 145 146 167 178 187 192 188 187 184 179 181 184 186 186 177 168 154 140 145 138 127 127 126 124 120 117 113
314 48 90 120 259 256 257 252 234 223 227 224 226 228 226 230 233 236 237 226 228 240 237 235 245 250 250 252 251 244 239 240 240 240 238 234 234 229 224 225 227 230 230 219 211 205 196 192 188 182 183 186 187 186 183 179 173 166 154 151 166 173 185 196 198 200 195 191 192 189 192 190 180 169 158 152 152 141 128 131 131 124 121 118 112
333 43 102 182 252 267 276 270 254 247 242 236 232 226 220 219 218 230 237 230 232 238 227 221 230 235 239 249 252 249 246 245 243 241 242 238 237 235 230 228 227 228 232 227 216 206 197 194 195 192 181 176 183 187 189 189 181 172 166 166 171 176 190 185 189 199 200 200 202 196 194 192 185 175 168 169 161 147 137 139 138 129 124 122 116
20 11 315 274 269 273 282 286 283 274 255 236 220 207 204 207 210 224 234 231 235 239 229 225 232 234 233 239 247 249 249 251 248 242 245 243 241 241 237 231 228 225 225 228 229 220 203 194 195 195 189 182 180 184 189 192 191 187 181 169 171 196 206 173 175 191 196 201 204 200 199 194 189 186 182 181 167 150 145 150 149 137 133 131 124
21 358 329 314 303 292 293 298 301 296 279 254 232 213 198 197 206 217 222 221 226 239 240 237 241 244 241 238 243 246 245 252 249 240 246 248 243 244 241 235 232 228 225 222 228 228 212 196 195 194 194 191 182 180 187 193 199 201 195 188 193 225 188 172 173 181 188 198 201 199 203 198 190 193 193 190 176 160 154 156 154 146 143 140 134
15 359 351 346 338 328 321 322 324 316 304 287 266 243 219 210 215 223 227 226 232 250 256 251 246 246 247 244 246 248 247 251 246 239 248 249 242 241 242 239 234 231 227 220 221 224 213 197 198 198 196 192 185 183 187 189 197 206 205 202 206 209 177 179 186 177 177 196 199 198 205 199 191 195 200 197 185 172 164 161 159 157 155 148 145
19 11 7 4 358 357 354 354 356 352 341 318 286 261 250 248 237 232 236 236 241 251 259 260 254 249 247 248 250 252 252 254 248 239 244 247 241 237 237 235 232 229 227 223 221 222 216 202 197 199 196 194 192 191 190 188 194 202 204 207 213 196 180 188 194 184 178 187 183 190 207 202 194 197 201 201 193 183 176 170 168 169 168 162 159
25 17 9 4 359 0 360 1 6 7 9 1 323 272 249 250 245 237 240 246 251 252 253 258 257 253 250 250 252 252 250 249 244 237 238 242 237 231 228 227 227 226 226 226 220 220 221 209 200 201 199 198 198 195 192 191 196 199 198 203 208 191 183 192 197 192 190 185 177 183 193 196 200 202 202 201 196 189 187 182 176 178 178 176 175
25 21 15 9 1 360 358 358 3 1 6 13 357 302 250 246 245 237 237 244 250 253 253 253 251 251 254 253 250 248 246 245 243 238 236 237 231 225 226 226 224 223 226 226 220 220 224 216 208 208 204 202 203 203 198 193 196 200 198 198 197 190 185 190 198 200 195 184 184 185 185 190 197 199 199 199 196 194 195 194 186 185 188 187 186
21 20 17 13 6 3 0 359 0 356 359 9 0 329 278 260 252 244 247 252 255 256 254 253 251 249 253 256 255 252 246 243 243 239 232 230 224 221 227 227 222 223 225 225 221 221 222 217 211 210 208 209 211 210 204 199 199 202 201 198 198 196 192 194 198 197 193 185 177 176 183 191 196 193 195 197 198 198 199 201 198 195 195 194 192